Location: Kitchener-Waterloo
(43.4500°N, 80.5000°W)
Time: 13:52:41
(UTC-04:00)

Amateur Radio Satellites - All Passes

Search period start: 01 April 2015 13:22
Search period end: 02 April 2015 13:22
Location: Kitchener-Waterloo, 43.4500°N, 80.5000°W

Satellite Date Start Highest point End Downlink Frequencies (MHz)
Time Altitude Azimuth
PCSat 01 Apr 13:29:17 13:31:32 13° 104° (ESE) 13:34:05 145.827
SPROUT 01 Apr 13:29:18 13:33:32 57° 100° (E) 13:37:46 437.525
CUBEBUG 1 01 Apr 13:33:25 13:37:23 35° 290° (WNW) 13:41:17 437.445
Oscar 19 01 Apr 13:41:38 13:46:39 61° 73° (ENE) 13:51:44 437.125/150
VELOX 1 01 Apr 13:44:12 13:46:50 15° 297° (WNW) 13:49:20 145.980
SWISSCUBE 01 Apr 13:48:52 13:51:18 14° 88° (E) 13:53:58 437.505
AISAT 01 Apr 13:50:48 13:52:55 13° 298° (WNW) 13:54:52 437.250
BEESAT 01 Apr 13:51:19 13:53:39 14° 88° (E) 13:56:13 436.000
JAS-2 01 Apr 14:19:22 14:19:44 10° 46° (NE) 14:20:34 435.910
Gurwin Techsat 1B 01 Apr 14:23:39 14:28:34 41° 69° (ENE) 14:33:33 435.225
O/OREOS (USA 219) 01 Apr 14:28:43 14:33:09 51° 251° (WSW) 14:37:30 437.305
ESTCUBE 1 01 Apr 14:33:00 14:33:36 10° 300° (WNW) 14:33:56 437.505/2401.250
ITUPSAT 1 01 Apr 14:38:45 14:43:16 40° 98° (E) 14:47:46 437.325
YUBILEINY 01 Apr 14:40:07 14:48:57 80° 280° (W) 14:57:51 435.215
TISAT 1 01 Apr 14:43:01 14:46:36 27° 291° (WNW) 14:50:08 437.305
AO-7 01 Apr 14:44:44 14:50:58 25° 53° (NE) 14:57:26 29.400- 29.500
ITAMSAT 1 01 Apr 14:54:19 14:59:32 87° 250° (WSW) 15:04:49 435.822/435.867
SPROUT 01 Apr 15:06:45 15:09:13 15° 296° (WNW) 15:11:31 437.525
PCSat 01 Apr 15:08:51 15:14:17 89° 310° (NW) 15:19:45 145.827
Oscar 19 01 Apr 15:23:08 15:26:31 17° 271° (W) 15:29:43 437.125/150
SWISSCUBE 01 Apr 15:24:57 15:29:44 65° 286° (WNW) 15:34:26 437.505
BEESAT 01 Apr 15:27:18 15:32:04 67° 287° (WNW) 15:36:48 436.000
AIST 1 01 Apr 15:38:03 15:42:23 79° 81° (E) 15:46:39
HORYU 2 01 Apr 15:54:12 15:58:36 68° 74° (ENE) 16:03:03 437.375
JAS-2 01 Apr 15:56:14 16:02:54 45° 66° (ENE) 16:10:12 435.910
Gurwin Techsat 1B 01 Apr 16:04:11 16:08:42 27° 267° (W) 16:13:10 435.225
ITUPSAT 1 01 Apr 16:17:05 16:20:59 24° 294° (WNW) 16:24:45 437.325
KKS-1 01 Apr 16:17:31 16:22:00 83° 103° (ESE) 16:26:27 437.445
AO-7 01 Apr 16:34:38 16:42:58 84° 253° (WSW) 16:51:20 29.400- 29.500
ITAMSAT 1 01 Apr 16:38:29 16:39:56 11° 275° (W) 16:41:02 435.822/435.867
STARS 01 Apr 16:41:26 16:45:53 86° 280° (W) 16:50:17 437.465
YUBILEINY 01 Apr 16:41:41 16:47:34 18° 304° (WNW) 16:53:01 435.215
PCSat 01 Apr 16:54:47 16:58:32 18° 322° (NW) 17:02:11 145.827
BEESAT 3 01 Apr 17:19:43 17:21:51 14° 36° (NE) 17:24:04 437.485
HORYU 2 01 Apr 17:34:00 17:35:50 12° 272° (W) 17:37:26 437.375
JAS-2 01 Apr 17:41:20 17:47:59 41° 266° (W) 17:55:10 435.910
CUTE-I 01 Apr 17:42:04 17:46:15 24° 64° (ENE) 17:50:32 437.470
Cubesat XI-IV 01 Apr 17:43:14 17:47:29 25° 64° (ENE) 17:51:51 437.490
KKS-1 01 Apr 17:56:29 17:58:04 11° 299° (WNW) 17:59:25 437.445
RS-15 01 Apr 17:58:08 18:06:22 27° 104° (ESE) 18:15:06 29.354- 29.394
M-CUBED/EXP-1 PRIME 01 Apr 18:07:47 18:11:26 22° 96° (E) 18:15:06 437.505
MOZHAYETS 4 01 Apr 18:17:21 18:22:03 88° 284° (WNW) 18:26:40
AIST 2 01 Apr 18:18:45 18:21:28 16° 38° (NE) 18:24:13 435.215
BEESAT 2 01 Apr 18:23:43 18:27:35 36° 48° (NE) 18:31:25 435.950
AO-7 01 Apr 18:31:50 18:37:09 17° 273° (W) 18:41:59 29.400- 29.500
CUBESAT XI-V 01 Apr 18:39:10 18:41:06 13° 87° (E) 18:43:16 437.345
SO-50 01 Apr 18:54:34 18:59:10 67° 121° (ESE) 19:03:56 436.795
BEESAT 3 01 Apr 18:56:26 19:00:35 87° 63° (ENE) 19:04:39 437.485
GONETS M04 01 Apr 18:59:33 19:07:02 35° 85° (E) 19:14:45
STRAND 1 01 Apr 19:12:55 19:15:54 16° 89° (E) 19:19:04 437.568
AUBIESAT-1 01 Apr 19:14:07 19:18:59 85° 108° (ESE) 19:23:41 437.475
CUTE-I 01 Apr 19:20:53 19:26:04 49° 261° (W) 19:31:15 437.470
Cubesat XI-IV 01 Apr 19:22:10 19:27:21 47° 261° (W) 19:32:32 437.490
PRISM 01 Apr 19:32:51 19:36:37 32° 97° (E) 19:40:21 437.425
M-CUBED/EXP-1 PRIME 01 Apr 19:41:52 19:46:33 48° 294° (WNW) 19:51:05 437.505
GOMX 1 01 Apr 19:48:34 19:49:51 11° 63° (ENE) 19:51:18 467.674
AIST 2 01 Apr 19:56:21 20:00:38 78° 236° (SW) 20:04:48 435.215
MOZHAYETS 4 01 Apr 19:57:15 19:58:37 11° 300° (WNW) 19:59:44
BEESAT 2 01 Apr 20:02:12 20:05:34 24° 246° (WSW) 20:08:50 435.950
RS-15 01 Apr 20:06:40 20:17:36 83° 306° (NW) 20:28:49 29.354- 29.394
SEEDS 01 Apr 20:10:20 20:12:19 14° 63° (ENE) 20:14:31 437.485
CUBESAT XI-V 01 Apr 20:14:31 20:19:08 68° 285° (WNW) 20:23:42 437.345
HO-68 01 Apr 20:21:32 20:28:08 43° 64° (ENE) 20:34:52 435.675
COMPASS 1 01 Apr 20:26:35 20:29:09 16° 65° (ENE) 20:31:52 437.405
SO-50 01 Apr 20:36:32 20:40:13 21° 322° (NW) 20:43:54 436.795
Oscar 11 01 Apr 20:49:43 20:51:37 13° 63° (ENE) 20:53:42 145.826/435.025
AUBIESAT-1 01 Apr 20:50:31 20:53:09 14° 305° (NW) 20:55:36 437.475
STRAND 1 01 Apr 20:50:34 20:55:39 65° 287° (WNW) 21:00:41 437.568
BRITE-PL 01 Apr 20:54:52 20:59:28 86° 77° (ENE) 21:03:47 437.365/2234.400
DOVE 4 01 Apr 20:54:57 20:58:50 36° 71° (ENE) 21:02:40 437.250
GONETS M04 01 Apr 20:55:08 21:03:37 54° 286° (WNW) 21:12:08
CANX-2 01 Apr 21:06:19 21:10:31 67° 76° (ENE) 21:14:47 2200.000
PRISM 01 Apr 21:08:38 21:11:58 23° 293° (WNW) 21:15:11 437.425
CUTE 1.7 + AOD 2 01 Apr 21:19:39 21:23:53 85° 77° (ENE) 21:28:11 437.475
UWE-3 01 Apr 21:20:43 21:23:18 17° 65° (ENE) 21:26:02 435.000/436.395/437.385
ZACube-1 01 Apr 21:21:37 21:23:41 14° 64° (ENE) 21:25:57 437.345
GOMX 1 01 Apr 21:23:10 21:27:33 73° 258° (WSW) 21:31:46 467.674
DANDE 01 Apr 21:28:08 21:30:57 64° 99° (E) 21:33:32 436.750
AAUSAT CUBESAT 2 01 Apr 21:30:07 21:34:15 66° 75° (ENE) 21:38:28 437.432
CUBEBUG 2 01 Apr 21:32:33 21:35:59 26° 68° (ENE) 21:39:30 437.445
SEEDS 01 Apr 21:43:30 21:47:41 62° 259° (W) 21:51:54 437.485
HUMSAT D 01 Apr 21:43:51 21:45:25 12° 63° (ENE) 21:47:10 437.325/437.525
CINEMA 3 01 Apr 21:44:25 21:48:32 65° 75° (ENE) 21:52:40 145.822/145.860
UKube-1 01 Apr 21:55:43 21:59:13 25° 67° (ENE) 22:02:49 .
CUSAT 1 01 Apr 21:59:24 22:01:35 22° 286° (WNW) 22:03:44 437.405
COMPASS 1 01 Apr 22:00:26 22:04:31 48° 262° (W) 22:08:37 437.405
ISS 01 Apr 22:02:09 22:05:08 34° 139° (SE) 22:08:08 145.825
HO-68 01 Apr 22:09:15 22:15:56 40° 263° (W) 22:22:36 435.675
DX 1 01 Apr 22:10:22 22:14:21 37° 70° (ENE) 22:18:23 434.975-435.025
PCSat 01 Apr 22:13:13 22:16:57 19° 39° (NE) 22:20:47 145.827
ESTCUBE 1 01 Apr 22:20:01 22:21:39 12° 61° (ENE) 22:23:30 437.505/2401.250
DELFI C3 01 Apr 22:22:09 22:26:14 88° 257° (WSW) 22:30:22 145.870
RS-15 01 Apr 22:22:20 22:31:57 33° 334° (NNW) 22:41:44 29.354- 29.394
Oscar 11 01 Apr 22:23:00 22:27:18 68° 259° (WSW) 22:31:38 145.826/435.025
DOVE 4 01 Apr 22:33:40 22:36:48 19° 268° (W) 22:39:47 437.250
FUNcube-1 01 Apr 22:41:07 22:45:15 85° 255° (WSW) 22:49:28 145.935
CANX-2 01 Apr 22:45:35 22:47:01 11° 273° (W) 22:48:13 2200.000
CUBEBUG 1 01 Apr 22:55:05 22:58:28 23° 67° (ENE) 23:01:56 437.445
UWE-3 01 Apr 22:55:33 22:59:33 45° 262° (W) 23:03:35 435.000/436.395/437.385
ZACube-1 01 Apr 22:55:34 22:59:39 56° 260° (W) 23:03:47 437.345
YUBILEINY 01 Apr 22:55:49 22:58:10 11° 49° (NE) 23:01:10 435.215
GONETS M04 01 Apr 23:00:51 23:03:12 11° 312° (NW) 23:04:55
VELOX 1 01 Apr 23:04:58 23:09:20 60° 74° (ENE) 23:13:44 145.980
CUBEBUG 2 01 Apr 23:09:05 23:12:40 27° 266° (W) 23:16:12 437.445
AAUSAT CUBESAT 2 01 Apr 23:09:07 23:10:27 11° 273° (W) 23:11:32 437.432
AISAT 01 Apr 23:11:16 23:15:41 73° 76° (ENE) 23:20:07 437.250
DUCHIFAT 1 01 Apr 23:14:56 23:15:48 11° 87° (E) 23:16:55 145.980
QB50P1 01 Apr 23:15:03 23:16:12 11° 88° (E) 23:17:37 145.935-145.965
HUMSAT D 01 Apr 23:16:38 23:20:43 66° 260° (W) 23:24:50 437.325/437.525
50 SAT 01 Apr 23:19:36 23:23:31 89° 78° (ENE) 23:27:29 437.505
UNISAT 6 01 Apr 23:19:51 23:23:47 28° 95° (E) 23:27:49 437.425
CINEMA 3 01 Apr 23:25:14 23:26:19 11° 273° (W) 23:27:09 145.822/145.860
TIGRISAT 01 Apr 23:28:09 23:32:17 32° 96° (E) 23:36:31 435.000
QB50P2 01 Apr 23:29:54 23:32:39 17° 91° (E) 23:35:33 145.880/145.840
UKube-1 01 Apr 23:31:22 23:35:16 32° 263° (W) 23:39:10 .
BUGSAT 1 01 Apr 23:37:30 23:39:24 13° 89° (E) 23:41:30 437.445
ISS 01 Apr 23:38:26 23:41:30 37° 337° (NNW) 23:44:34 145.825
DX 1 01 Apr 23:47:21 23:50:45 21° 267° (W) 23:54:04 434.975-435.025
ESTCUBE 1 01 Apr 23:53:23 23:57:57 82° 258° (WSW) 00:02:32 437.505/2401.250
PCSat 01 Apr 23:55:42 00:01:10 88° 241° (WSW) 00:06:36 145.827
POPSAT HIP 1 01 Apr 23:57:02 00:00:49 32° 96° (E) 00:04:40 437.405
ANTELSAT 02 Apr 00:00:09 00:04:47 72° 102° (ESE) 00:09:29 437.575/2403.000
TISAT 1 02 Apr 00:00:58 00:04:21 24° 68° (ENE) 00:07:49 437.305
NANOSAT C BR1 02 Apr 00:05:53 00:09:52 40° 98° (E) 00:13:53 145.865
POLYITAN 1 02 Apr 00:13:31 00:17:40 50° 99° (E) 00:21:50 437.675
SPROUT 02 Apr 00:24:31 00:28:39 51° 73° (ENE) 00:32:50 437.525
CUBEBUG 1 02 Apr 00:30:35 00:34:40 36° 263° (W) 00:38:44 437.445
RS-15 02 Apr 00:40:09 00:48:55 25° 8° (N) 00:58:03 29.354- 29.394
VELOX 1 02 Apr 00:44:04 00:46:23 14° 271° (W) 00:48:30 145.980
DUCHIFAT 1 02 Apr 00:47:59 00:52:12 69° 285° (WNW) 00:56:24 145.980
QB50P1 02 Apr 00:48:25 00:52:38 67° 286° (WNW) 00:56:50 145.935-145.965
YUBILEINY 02 Apr 00:49:04 00:57:41 56° 75° (ENE) 01:06:16 435.215
AISAT 02 Apr 00:51:29 00:52:54 11° 273° (W) 00:54:04 437.250
SWISSCUBE 02 Apr 00:56:25 00:59:50 20° 64° (ENE) 01:03:23 437.505
UNISAT 6 02 Apr 00:56:28 01:00:35 32° 291° (WNW) 01:04:42 437.425
BEESAT 02 Apr 00:58:45 01:02:07 20° 64° (ENE) 01:05:36 436.000
QB50P2 02 Apr 01:04:47 01:08:50 43° 288° (WNW) 01:12:51 145.880/145.840
TIGRISAT 02 Apr 01:05:03 01:08:58 28° 292° (WNW) 01:12:52 435.000
BUGSAT 1 02 Apr 01:11:21 01:15:16 50° 287° (WNW) 01:19:11 437.445
ISS 02 Apr 01:16:06 01:18:32 19° 357° (N) 01:20:57 145.825
POPSAT HIP 1 02 Apr 01:33:11 01:36:36 23° 293° (WNW) 01:39:56 437.405
TISAT 1 02 Apr 01:36:18 01:40:03 30° 264° (W) 01:43:47 437.305
ANTELSAT 02 Apr 01:38:37 01:41:05 14° 297° (WNW) 01:43:23 437.575/2403.000
PCSat 02 Apr 01:41:35 01:43:53 12° 256° (WSW) 01:45:53 145.827
NANOSAT C BR1 02 Apr 01:42:25 01:45:30 19° 294° (WNW) 01:48:28 145.865
SO-50 02 Apr 01:45:25 01:48:35 17° 34° (NE) 01:51:52 436.795
ITUPSAT 1 02 Apr 01:46:34 01:51:14 53° 72° (ENE) 01:55:57 437.325
POLYITAN 1 02 Apr 01:50:33 01:53:15 16° 296° (WNW) 01:55:49 437.675
Oscar 19 02 Apr 01:52:52 01:56:31 20° 91° (E) 02:00:20 437.125/150
SPROUT 02 Apr 02:02:33 02:05:07 15° 270° (W) 02:07:31 437.525
STARS 02 Apr 02:06:51 02:07:53 11° 61° (ENE) 02:09:09 437.465
SWISSCUBE 02 Apr 02:32:42 02:37:23 50° 260° (W) 02:42:05 437.505
BEESAT 02 Apr 02:34:57 02:39:38 51° 261° (W) 02:44:20 436.000
Gurwin Techsat 1B 02 Apr 02:40:02 02:42:44 14° 87° (E) 02:45:42 435.225
YUBILEINY 02 Apr 02:46:28 02:54:11 34° 275° (W) 03:01:38 435.215
ISS 02 Apr 02:52:51 02:55:40 26° 17° (NNE) 02:58:28 145.825
RS-15 02 Apr 02:54:09 03:05:02 48° 40° (NE) 03:16:28 29.354- 29.394
O/OREOS (USA 219) 02 Apr 03:04:33 03:07:15 16° 101° (E) 03:10:07 437.305
ITAMSAT 1 02 Apr 03:06:27 03:10:57 30° 95° (E) 03:15:31 435.822/435.867
KKS-1 02 Apr 03:16:41 03:21:07 86° 73° (ENE) 03:25:35 437.445
SO-50 02 Apr 03:24:58 03:29:58 81° 56° (NE) 03:34:53 436.795
ITUPSAT 1 02 Apr 03:26:11 03:29:31 18° 270° (W) 03:32:42 437.325
Oscar 19 02 Apr 03:31:12 03:36:16 54° 289° (WNW) 03:41:18 437.125/150
STARS 02 Apr 03:39:23 03:43:46 85° 257° (WSW) 03:48:10 437.465
HORYU 2 02 Apr 03:46:24 03:48:07 12° 88° (E) 03:50:06 437.375
MOZHAYETS 4 02 Apr 03:46:30 03:48:11 12° 61° (ENE) 03:50:06
VERMONT LUNAR 02 Apr 04:08:01 04:10:04 15° 153° (SSE) 04:12:10 437.305
AIST 1 02 Apr 04:08:35 04:12:44 43° 93° (E) 04:16:56
Gurwin Techsat 1B 02 Apr 04:18:05 04:23:24 75° 287° (WNW) 04:28:43 435.225
ISS 02 Apr 04:29:04 04:32:17 69° 217° (SW) 04:35:30 145.825
AUBIESAT-1 02 Apr 04:30:35 04:33:09 16° 56° (NE) 04:35:59 437.475
AO-7 02 Apr 04:35:28 04:42:29 31° 94° (E) 04:49:41 29.400- 29.500
O/OREOS (USA 219) 02 Apr 04:41:45 04:46:16 55° 297° (WNW) 04:50:49 437.305
ITAMSAT 1 02 Apr 04:45:49 04:50:32 36° 292° (WNW) 04:55:10 435.822/435.867
JAS-2 02 Apr 04:49:50 04:56:44 36° 92° (E) 05:03:09 435.910
M-CUBED/EXP-1 PRIME 02 Apr 04:57:11 05:00:52 30° 62° (ENE) 05:04:53 437.505
RS-15 02 Apr 05:06:45 05:18:02 62° 244° (WSW) 05:29:42 29.354- 29.394
SO-50 02 Apr 05:07:22 05:09:57 14° 251° (WSW) 05:12:18 436.795
GONETS M04 02 Apr 05:08:10 05:13:49 19° 57° (ENE) 05:19:53
MOZHAYETS 4 02 Apr 05:20:11 05:24:49 84° 258° (WSW) 05:29:31
HORYU 2 02 Apr 05:20:50 05:25:21 69° 286° (WNW) 05:29:49 437.375
PHONESAT 2.4 02 Apr 05:21:31 05:24:15 22° 156° (SSE) 05:27:02 2401.200-2431.200
CUBESAT XI-V 02 Apr 05:43:41 05:46:27 16° 63° (ENE) 05:49:23 437.345
VERMONT LUNAR 02 Apr 05:44:06 05:47:16 40° 169° (S) 05:50:26 437.305
AIST 1 02 Apr 05:47:38 05:50:42 18° 291° (WNW) 05:53:37
Gurwin Techsat 1B 02 Apr 06:00:48 06:02:35 11° 303° (WNW) 06:04:06 435.225
AUBIESAT-1 02 Apr 06:03:19 06:07:27 63° 254° (WSW) 06:11:57 437.475
PRISM 02 Apr 06:24:19 06:27:57 29° 69° (ENE) 06:31:39 437.425
AO-7 02 Apr 06:27:42 06:35:52 63° 293° (WNW) 06:43:59 29.400- 29.500
STRAND 1 02 Apr 06:29:31 06:33:44 27° 66° (ENE) 06:38:05 437.568
M-CUBED/EXP-1 PRIME 02 Apr 06:32:08 06:35:45 28° 261° (W) 06:39:36 437.505
JAS-2 02 Apr 06:34:37 06:42:00 49° 293° (WNW) 06:48:43 435.910
CUSAT 1 02 Apr 06:49:53 06:52:58 18° 71° (ENE) 06:56:49 437.405
PHONESAT 2.4 02 Apr 06:58:47 07:02:11 48° 173° (S) 07:05:36 2401.200-2431.200
GONETS M04 02 Apr 07:03:27 07:12:21 83° 81° (E) 07:21:14
CUBESAT XI-V 02 Apr 07:18:48 07:23:28 62° 260° (W) 07:28:09 437.345
VERMONT LUNAR 02 Apr 07:21:28 07:24:43 49° 186° (S) 07:27:58 437.305
RS-15 02 Apr 07:23:31 07:28:32 13° 263° (W) 07:32:27 29.354- 29.394
CUTE-I 02 Apr 07:36:35 07:41:52 61° 101° (E) 07:47:07 437.470
Cubesat XI-IV 02 Apr 07:38:02 07:43:20 64° 101° (E) 07:48:37 437.490
PRISM 02 Apr 07:59:53 08:03:26 25° 265° (W) 08:06:57 437.425
DANDE 02 Apr 08:03:43 08:07:58 60° 78° (ENE) 08:13:46 436.750
STRAND 1 02 Apr 08:07:58 08:12:48 40° 262° (W) 08:17:38 437.568
AO-7 02 Apr 08:22:30 08:27:12 16° 314° (NW) 08:31:34 29.400- 29.500
JAS-2 02 Apr 08:22:57 08:25:17 11° 313° (NW) 08:27:11 435.910
CUSAT 1 02 Apr 08:31:15 08:35:50 59° 262° (W) 08:41:56 437.405
PHONESAT 2.4 02 Apr 08:36:54 08:40:18 45° 189° (S) 08:43:42 2401.200-2431.200
CANX-2 02 Apr 08:53:02 08:54:08 11° 87° (E) 08:55:29 2200.000
BEESAT 3 02 Apr 08:53:23 08:54:53 12° 110° (ESE) 08:56:35 437.485
BRITE-PL 02 Apr 08:58:28 09:01:48 22° 94° (E) 09:05:21 437.365/2234.400
VERMONT LUNAR 02 Apr 08:59:17 09:02:02 24° 202° (SSW) 09:04:47 437.305
GONETS M04 02 Apr 09:01:54 09:08:16 22° 280° (W) 09:14:14
CUTE 1.7 + AOD 2 02 Apr 09:05:23 09:07:34 14° 88° (E) 09:09:57 437.475
CUTE-I 02 Apr 09:17:43 09:21:32 20° 298° (WNW) 09:25:12 437.470
Cubesat XI-IV 02 Apr 09:19:15 09:23:00 19° 298° (WNW) 09:26:34 437.490
GOMX 1 02 Apr 09:23:28 09:27:10 27° 95° (E) 09:31:07 467.674
SEEDS 02 Apr 09:27:33 09:30:43 20° 92° (E) 09:33:58 437.485
HO-68 02 Apr 09:35:06 09:41:43 39° 96° (E) 09:48:23 435.675
CINEMA 3 02 Apr 09:38:55 09:41:23 15° 90° (E) 09:44:07 145.822/145.860
COMPASS 1 02 Apr 09:43:17 09:46:45 24° 93° (E) 09:50:17 437.405
DANDE 02 Apr 09:48:28 09:51:16 15° 266° (W) 09:54:13 436.750
BEESAT 2 02 Apr 09:56:33 10:00:29 46° 119° (ESE) 10:04:31 435.950
AIST 2 02 Apr 09:56:44 09:59:28 17° 112° (ESE) 10:02:22 435.215
DELFI C3 02 Apr 10:02:51 10:04:19 12° 88° (E) 10:06:01 145.870
DUCHIFAT 1 02 Apr 10:09:33 10:10:18 11° 61° (ENE) 10:11:18 145.980
QB50P1 02 Apr 10:09:54 10:10:59 11° 62° (ENE) 10:12:16 145.935-145.965
Oscar 11 02 Apr 10:09:59 10:13:11 20° 92° (E) 10:16:29 145.826/435.025
PHONESAT 2.4 02 Apr 10:15:36 10:18:12 19° 205° (SSW) 10:20:47 2401.200-2431.200
UNISAT 6 02 Apr 10:20:28 10:24:03 27° 68° (ENE) 10:27:46 437.425
QB50P2 02 Apr 10:24:39 10:27:12 16° 65° (ENE) 10:29:54 145.880/145.840
CANX-2 02 Apr 10:26:20 10:30:39 70° 286° (WNW) 10:34:56 2200.000
BEESAT 3 02 Apr 10:28:21 10:32:26 70° 305° (NW) 10:36:35 437.485
TIGRISAT 02 Apr 10:28:28 10:32:13 31° 69° (ENE) 10:36:06 435.000
FUNcube-1 02 Apr 10:29:08 10:32:04 18° 91° (E) 10:35:10 145.935
DOVE 4 02 Apr 10:29:18 10:33:43 89° 284° (WNW) 10:38:23 437.250
BUGSAT 1 02 Apr 10:29:38 10:31:19 13° 63° (ENE) 10:33:11 437.445
BRITE-PL 02 Apr 10:36:36 10:40:27 34° 289° (WNW) 10:44:27 437.365/2234.400
CUTE 1.7 + AOD 2 02 Apr 10:39:40 10:43:55 55° 286° (WNW) 10:48:08 437.475
ZACube-1 02 Apr 10:43:11 10:46:49 25° 94° (E) 10:50:35 437.345
UWE-3 02 Apr 10:44:00 10:47:59 31° 96° (E) 10:52:04 435.000/436.395/437.385
AAUSAT CUBESAT 2 02 Apr 10:47:37 10:51:52 75° 284° (WNW) 10:56:05 437.432
POPSAT HIP 1 02 Apr 10:51:13 10:54:50 29° 69° (ENE) 10:58:31 437.405
VELOX 1 02 Apr 10:57:35 10:58:00 10° 87° (E) 10:58:43 145.980
CUBEBUG 2 02 Apr 10:57:48 11:02:12 53° 99° (E) 11:06:43 437.445
50 SAT 02 Apr 10:58:52 10:59:35 10° 87° (E) 11:00:33 437.505
NANOSAT C BR1 02 Apr 10:59:45 11:03:33 35° 70° (ENE) 11:07:26 145.865
HUMSAT D 02 Apr 11:00:26 11:03:25 19° 92° (E) 11:06:32 437.325/437.525
ANTELSAT 02 Apr 11:00:28 11:04:44 71° 75° (ENE) 11:09:07 437.575/2403.000
GOMX 1 02 Apr 11:01:34 11:05:20 29° 290° (WNW) 11:09:14 467.674
SEEDS 02 Apr 11:02:42 11:06:42 37° 289° (WNW) 11:10:38 437.485
AISAT 02 Apr 11:02:54 11:04:44 13° 88° (E) 11:06:48 437.250
POLYITAN 1 02 Apr 11:07:46 11:11:45 44° 72° (ENE) 11:15:48 437.675
CINEMA 3 02 Apr 11:14:34 11:18:59 58° 286° (WNW) 11:23:34 145.822/145.860
UKube-1 02 Apr 11:17:27 11:21:28 37° 98° (E) 11:25:29 .
COMPASS 1 02 Apr 11:18:43 11:22:30 31° 290° (WNW) 11:26:12 437.405
HO-68 02 Apr 11:22:47 11:29:33 44° 295° (WNW) 11:36:13 435.675
DX 1 02 Apr 11:33:19 11:37:37 58° 101° (E) 11:41:53 434.975-435.025
AIST 2 02 Apr 11:33:32 11:37:43 53° 308° (NW) 11:41:56 435.215
BEESAT 2 02 Apr 11:35:34 11:38:53 22° 318° (NW) 11:42:09 435.950
DELFI C3 02 Apr 11:35:54 11:39:57 59° 286° (WNW) 11:43:58 145.870
DUCHIFAT 1 02 Apr 11:41:23 11:45:34 81° 255° (WSW) 11:49:48 145.980
QB50P1 02 Apr 11:42:07 11:46:19 78° 258° (WSW) 11:50:33 145.935-145.965
Oscar 11 02 Apr 11:45:28 11:49:34 39° 289° (WNW) 11:53:36 145.826/435.025
ESTCUBE 1 02 Apr 11:45:58 11:49:10 19° 91° (E) 11:52:28 437.505/2401.250
UNISAT 6 02 Apr 11:57:03 12:00:48 28° 265° (W) 12:04:35 437.425
QB50P2 02 Apr 11:58:41 12:02:47 49° 261° (W) 12:06:54 145.880/145.840
BUGSAT 1 02 Apr 12:02:16 12:06:22 64° 259° (W) 12:10:27 437.445
YUBILEINY 02 Apr 12:02:50 12:04:20 11° 73° (ENE) 12:06:36 435.215
FUNcube-1 02 Apr 12:04:26 12:08:41 47° 288° (WNW) 12:12:59 145.935
TIGRISAT 02 Apr 12:05:32 12:09:03 24° 267° (W) 12:12:34 435.000
BEESAT 3 02 Apr 12:09:36 12:11:18 12° 326° (NNW) 12:12:53 437.485
DOVE 4 02 Apr 12:10:23 12:10:59 10° 298° (WNW) 12:11:20 437.250
CUBEBUG 1 02 Apr 12:18:11 12:22:10 36° 97° (E) 12:26:10 437.445
ZACube-1 02 Apr 12:19:15 12:23:15 33° 290° (WNW) 12:27:15 437.345
UWE-3 02 Apr 12:20:40 12:24:26 27° 291° (WNW) 12:28:14 435.000/436.395/437.385
POPSAT HIP 1 02 Apr 12:27:12 12:30:44 25° 266° (W) 12:34:13 437.405
VELOX 1 02 Apr 12:30:49 12:35:14 77° 286° (WNW) 12:39:38 145.980
50 SAT 02 Apr 12:30:59 12:35:00 66° 285° (WNW) 12:39:01 437.505
HUMSAT D 02 Apr 12:35:21 12:39:23 41° 289° (WNW) 12:43:25 437.325/437.525
CUBEBUG 2 02 Apr 12:35:35 12:38:34 17° 295° (WNW) 12:41:28 437.445
NANOSAT C BR1 02 Apr 12:36:20 12:39:34 21° 268° (W) 12:42:41 145.865
AISAT 02 Apr 12:37:29 12:41:51 64° 286° (WNW) 12:46:13 437.250
ANTELSAT 02 Apr 12:41:04 12:42:11 11° 274° (W) 12:43:02 437.575/2403.000
POLYITAN 1 02 Apr 12:45:11 12:47:58 17° 269° (W) 12:50:37 437.675
UKube-1 02 Apr 12:54:04 12:57:26 22° 294° (WNW) 13:00:42 .
Oscar 19 02 Apr 13:10:39 13:15:08 32° 67° (ENE) 13:19:42 437.125/150
DX 1 02 Apr 13:10:56 13:13:27 15° 297° (WNW) 13:15:49 434.975-435.025
O/OREOS (USA 219) 02 Apr 13:11:32 13:15:47 37° 60° (ENE) 13:19:59 437.305
AIST 2 02 Apr 13:16:24 13:17:21 10° 329° (NNW) 13:18:10 435.215
